Voltar ao catálogo

STARLINK-31483

AtivoComunicaçõesVLEO
NORAD 59411·PAYLOAD·🇺🇸 United States

Lançado Apr 5, 2024 de Cape Canaveral Space Force Station

Loading…

Próximas Passagens (próximas 24 horas)

TLE

AtualizadoSource: CelesTrak SupGP

Época: Sep 15, 2026, 02:10 UTC

1 59411C 24064P   26258.09076389 -.00018126  00000+0 -65647-3 0  2589
2 59411  43.0018  66.6547 0001320 269.2960 349.3604 15.27590249    16

Acompanhe STARLINK-31483 em tempo real com AllMySat

Download on the App Store